星链-6252 (STARLINK-6252 )

导读

STARLINK-6252是美国SpaceX星链(Starlink)星座中的一颗互联网通信卫星,于2023年5月14日发射,属于星链组网卫星。星链项目旨在构建全球卫星互联网,为全球用户提供宽带服务,覆盖偏远地区,并拓展航空、海事等场景通信。STARLINK-6252延续星链技术配置,支持低轨互联网接入,助力SpaceX完成近万颗卫星的星座部署,目前在轨正常运行,服务全球卫星互联网网络,支撑星链星座的全球覆盖能力。

Basic Information
目录编号:
56555
目录名称:
STARLINK-6252
国际标识:
2023-065BE
轨道中心:
EARTH
卫星名称:
星链-6252
卫星全名:
星链-6252 (STARLINK-6252 )
卫星状态:
在轨 (已飞行1217 天)
发射日期:
2023-05-14 UTC
国别 :
美国 (US)
星等 :
--
This satellite is enrolled in the Space Conjunction Data Service (SCDS) and the current flight risk assessment level is: No High Risk
Orbit Information
数据来源 国际轨道数据 AOE轨道数据
星历时间 2026-09-12T14:55:01+0800
10小时前
查看轨道信息
2026-09-06T08:00:00+0800
6天前
查看轨道信息
半长轴 6861.196km 6861.192km
偏心率 0.0000793 0.0001394
轨道倾角 43.002° 43.003°
近地点辐角 290.978° 292.538°
升交点赤经 249.459° 284.972°
平近点角 69.099° 6.397°
近地点 482.514km 482.098km
远地点 483.604km 484.012km
周期 94.267分钟 94.267分钟
每日圈数 15.275769 15.275782
Detailed Information
固有亮度:
5
最大亮度:
2.5
卫星平台:
Starlink v1.5
覆盖范围:
全球
运营商:
太空探索技术公司
运营商所在国:
美国
制造商(研发单位):
太空探索技术公司
制造商所在国:
美国
使用方式:
暂无
Satellite Introduction
星链(Starlink)计划是由太空探索技术公司(SpaceX)提出的一个巨型低轨卫星互联网星座项目,计划在2019年至2024年间在太空搭建由约1.2万颗卫星组成的“星链”网络,其中1584颗将部署在地球上空550千米处的近地轨道,并从2020年开始工作。该卫星仍在工作。
2D Orbit Map
3D Orbit Map
Orbit Altitude Analysis Chart
Orbit Inclination Analysis Chart
Orbit Comprehensive Analysis Chart
View Comprehensive Chart
Conjunction Data List
Event ID Objects TCA Miss Dist (km) Collision Risk Probability Collision Risk Index (CRI) Action
CDM_260914-172305-655506-327921
2026-09-14T
17:23:44+0000
0.394 km
远距离
9.876837E-5 中风险 0.75
CDM_260914-163605-655506-327921
2026-09-14T
16:36:40+0000
0.908 km
远距离
7.853181E-6 低风险 0.53
CDM_260913-112305-655506-387323
2026-09-13T
11:23:28+0000
2.968 km
极远距离
1.16453E-6 低风险 0.36
CDM_260914-150205-655506-327921
2026-09-14T
15:02:30+0000
2.333 km
极远距离
5.500339E-7 极低风险 0.3
CDM_260914-185705-655506-327921
2026-09-14T
18:57:53+0000
2.339 km
极远距离
5.479627E-7 极低风险 0.3
CDM_260914-154905-655506-327921
2026-09-14T
15:49:35+0000
2.735 km
极远距离
4.386189E-7 极低风险 0.28
CDM_260914-181005-655506-327921
2026-09-14T
18:10:49+0000
2.910 km
极远距离
4.093053E-7 极低风险 0.27
Miss Distance Evolution Trend with All Objects
Collision Probability Evolution Trend with All Objects